Regional Weather Roundup
Issued by NWS

Home | Current Version | Previous Version | Graphics & Text | Print | Product List | Glossary On
Versions: 1 2 3 4 5 6 7 8 9 10 11 12 13 14 15 16 17 18 19 20 21 22 23 24 25 26 27 28 29 30 31 32 33 34 35 36 37 38 39 40 41 42 43 44 45 46 47 48 49 50
371
ASUS43 KOAX 111010
RWRNE

WEATHER ROUNDUP FOR NEBRASKA
NATIONAL WEATHER SERVICE OMAHA NE
400 AM CST SUN DEC 11 2016

NOTES: SATELLITE DATA IS BEING USED TO AUGMENT CLOUD COVER ABOVE
       12000 FEET.
       "FAIR" INDICATES FEW OR NO CLOUDS BELOW 12,000 FEET WITH NO
       SIGNIFICANT WEATHER AND/OR OBSTRUCTIONS TO VISIBILITY.

  * THESE STATIONS DO NOT REPORT WEATHER SUCH AS RAIN...SNOW OR FOG.

NEZ001>004-019>022-054>056-111100-
NEBRASKA PANHANDLE

CITY           SKY/WX    TMP DP  RH WIND       PRES   REMARKS
SCOTTSBLUFF    CLOUDY    31  23  72 NW7       29.80R WCI  24
ALLIANCE       CLOUDY    20  14  77 NE3       29.77R
CHADRON        CLOUDY    12   7  80 CALM      29.84R
KIMBALL        CLOUDY    32  28  83 NW10      29.77S WCI  24
SIDNEY         CLOUDY    34  23  64 N17       29.76S WCI  23
$$

NEZ057>060-069>072-079>082-111100-
SOUTHWEST NEBRASKA

CITY           SKY/WX    TMP DP  RH WIND       PRES   REMARKS
NORTH PLATTE   CLOUDY    25  17  72 N18G25    29.74R WCI  11
IMPERIAL       CLOUDY    31  23  72 N17       29.74R WCI  19
LEXINGTON      CLOUDY    23  20  89 NW5       29.70F WCI  17
MCCOOK         CLOUDY    21  19  92 NW10      29.69S WCI  10
OGALLALA       CLOUDY    33  24  70 N30       29.72F WCI  19
$$

NEZ005>010-023>029-035>040-094-111100-
NORTH CENTRAL NEBRASKA

CITY           SKY/WX    TMP DP  RH WIND       PRES   REMARKS
VALENTINE      CLOUDY    11   7  84 NW12      29.83R FOG     WCI  -3
AINSWORTH      CLOUDY    13  12  95 NW21      29.82R FOG     WCI  -5
BROKEN BOW     CLOUDY    21  17  84 NW17G24   29.74R WCI   7
O`NEILL        CLOUDY    22  20  92 CALM      29.75R
ORD            CLOUDY    21  17  84 NW7       29.72R WCI  12
THEDFORD       CLOUDY    16  12  83 NW17G23   29.78S WCI   0
$$

NEZ041-046>049-061>064-073>077-083>087-111100-
SOUTH CENTRAL NEBRASKA

CITY           SKY/WX    TMP DP  RH WIND       PRES   REMARKS
GRAND ISLAND   CLOUDY    22  20  92 SW5       29.72R WCI  16
AURORA         PTCLDY    25  20  82 CALM      29.72R
HASTINGS       CLOUDY    24  21  88 CALM      29.71R
HEBRON         PTCLDY    24  21  88 CALM      29.73S
HOLDREGE       CLOUDY    20  19  93 NW3       29.70S
KEARNEY *      CLOUDY    23  19  86 CALM      29.70F
YORK           PTCLDY    25  21  86 S3        29.72R
$$

NEZ011>018-030>034-042>045-111100-
NORTHEAST NEBRASKA

CITY           SKY/WX    TMP DP  RH WIND       PRES   REMARKS
NORFOLK        CLOUDY    20  16  84 CALM      29.76R
ALBION         PTCLDY    20  18  89 CALM      29.73F
BLAIR          CLOUDY    30  22  73 E6        29.76S WCI  24
FREMONT        CLOUDY    29  22  73 CALM      29.76S
TEKAMAH        CLOUDY    24  18  77 S5        29.78F WCI  18
WAYNE          MOCLDY    25  21  85 SE3       29.78R
$$

NEZ050>053-065>068-078-088>093-111100-
SOUTHEAST NEBRASKA

CITY           SKY/WX    TMP DP  RH WIND       PRES   REMARKS
LINCOLN        PTCLDY    30  22  72 SE6       29.76F WCI  24
OMAHA EPPLEY   CLOUDY    32  21  64 SE9       29.79F WCI  24
BEATRICE       CLOUDY    33  26  75 SE6       29.73F WCI  28
FALLS CITY     CLOUDY    37  26  64 SE8       29.78F WCI  31
NEBRASKA CITY  CLOUDY    33  20  57 S13       29.76F WCI  24
PLATTSMOUTH    PTCLDY    31  19  62 SE7       29.77F WCI  24
$$

NEZ044-045-051>053-067-111100-
OMAHA AREA

CITY           SKY/WX    TMP DP  RH WIND       PRES   REMARKS
OMAHA EPPLEY   CLOUDY    32  21  64 SE9       29.79F WCI  24
BLAIR          CLOUDY    30  22  73 E6        29.76S WCI  24
FREMONT        CLOUDY    29  22  73 CALM      29.76S
MILLARD        PTCLDY    31  22  70 SE3       29.77F
OFFUTT AFB     CLOUDY    33  22  66 E9        29.78F WCI  25
PLATTSMOUTH    PTCLDY    31  19  62 SE7       29.77F WCI  24
WAHOO          FAIR      26  20  78 SE6       29.76S WCI  20
$$




USA.gov is the U.S. government's official web portal to all federal, state and local government web resources and services.